Regional Weather Roundup
Issued by NWS Northern Indiana

Home | Current Version | Previous Version | Text Only | Print | Product List | Glossary Off
Versions: 1 2 3 4 5 6 7 8 9 10 11 12 13 14 15 16 17 18 19 20 21 22 23 24 25 26 27 28 29 30 31 32 33 34 35 36 37 38 39 40 41 42 43 44 45 46 47 48 49 50

000
ASUS43 KIWX 230410
RWRIWX

KIWX WEATHER ROUNDUP
NATIONAL WEATHER SERVICE NORTHERN INDIANA
1100 PM EST SAT NOV 22 2014

NOTE: "FAIR" INDICATES FEW OR NO CLOUDS BELOW 12,000 FEET WITH NO
SIGNIFICANT WEATHER AND/OR OBSTRUCTIONS TO VISIBILITY.

* THESE STATIONS ARE NOT UNDER NWS QUALITY CONTROL. THEY ALSO MAY NOT
  REPORT WEATHER SUCH AS PRECIPITATION OR FOG.

INZ001>027-230500-
NORTHERN INDIANA

CITY           SKY/WX    TMP DP  RH WIND       PRES   REMARKS
GARY*          CLOUDY    55  47  75 S10G18    29.89F
VALPARAISO     CLOUDY    50  45  83 S13       29.92F
MICHIGAN CITY* CLOUDY    52  43  71 SW15G22   29.91R
LAPORTE*       CLOUDY    51  47  83 S12       29.92F
KNOX*          CLOUDY    49  43  80 S13       29.93S
SOUTH BEND     CLOUDY    50  44  80 S10       29.93S
GOSHEN         CLOUDY    50  43  77 SW14      29.93S
MONTICELLO*    DRIZZLE   50  46  86 S13       29.95F
LOGANSPORT*    LGT RAIN  46  43  87 S10       29.97F
ROCHESTER*     CLOUDY    50  45  81 S9        29.96S
WARSAW*        CLOUDY    52  41  66 SW6       29.95S
ANGOLA*        CLOUDY    50  43  76 SW9       29.95R
FORT WAYNE     CLOUDY    49  41  74 SW10      29.99R
HUNTINGTON*    CLOUDY    51  41  69 SW7       29.97S
PERU/GRISSOM   LGT RAIN  49  49 100 SW14      29.97R
MARION*        CLOUDY    49  38  66 S10       29.99S

$$
INZ028>050-230500-
CENTRAL INDIANA

CITY           SKY/WX    TMP DP  RH WIND       PRES   REMARKS
LAFAYETTE      LGT RAIN  49  46  90 S5        29.97S
KOKOMO*        CLOUDY    50  43  76 SW14      29.98S
MUNCIE*        LGT RAIN  52  38  58 S13G20    29.99S
INDIANAPOLIS   CLOUDY    52  39  61 S10       29.99F

$$
MIZ043>046-050>051-056>058-064>065-071>073-077>080-230500-
SOUTHWEST LOWER MICHIGAN

CITY           SKY/WX    TMP DP  RH WIND       PRES   REMARKS
BATTLE CREEK   CLOUDY    50  44  80 SW15      29.91S
BENTON HARBOR  CLOUDY    50  45  83 S8        29.89S
COLDWATER*     CLOUDY    51  45  80 SW8       29.93S
HILLSDALE*     CLOUDY    50  45  83 SW8       29.94S
HOLLAND        CLOUDY    52  46  80 SW21G29   29.87S
GRAND RAPIDS   MOCLDY    44  42  93 SW10      29.88R FOG
KALAMAZOO      CLOUDY    48  43  82 SW13      29.91S
STURGIS*       CLOUDY    48  45  87 SW13      29.93R
THREE RIVERS*  CLOUDY    50  45  81 SW9G16    29.92S

$$
OHZ001>008-015>018-024>025-230500-
NORTHWEST OHIO

CITY           SKY/WX    TMP DP  RH WIND       PRES   REMARKS
WAUSEON*       CLOUDY    48  43  81 SW6       29.97S
DEFIANCE       CLOUDY    51  41  68 SW10      29.98R
FINDLAY        CLOUDY    50  39  66 S14       29.99S
TOLEDO EXPRESS CLOUDY    51  40  65 SW9G18    29.97S
TOLEDO METCALF CLOUDY    50  39  66 SW10      29.99R
LIMA           CLOUDY    52  37  56 S13       30.00F

$$
AND FOR LAKE MICHIGAN COASTAL AND OPEN LAKE BUOY OBSERVATIONS

STATION/POSITION TEMP    WIND        PRES    VSBY  WAVE
                 AIR SEA DIR/SP/G                  HT/PER
                 (F)     (DEG/KT/KT) (MB)    (MI)  (FT/S)
CALUMET HARBOR    52     200/ 12/ 19 1010.7F
MICHIGAN CITY     53     190/ 18/ 24   N/A
SAINT JOSEPH      52     180/ 15/ 21 1012.2F
SOUTH LAKE BUOY   46 42  190/ 14/ 16 1010.9R         2/ 4

$$
&&


USA.gov is the U.S. government's official web portal to all federal, state and local government web resources and services.